Location: Newark
(55.8429°N, 38.1995°E)
Time: 08:11:54
(UTC+00:00)

ISS - Pass Details

Date: 31 October 2019
Orbit: 412 x 421 km, 51.6° (Epoch: 17 November)

Event Time Altitude Azimuth Distance (km) Brightness Sun altitude
Exits shadow 02:24:50 22° 196° (SSW) 969 -2.1 -18.0°
Maximum altitude 02:26:01 28° 161° (SSE) 827 -2.1 -17.8°
Drops below altitude 10° 02:28:58 10° 100° (E) 1,509 0.3 -17.4°
Sets 02:31:14 0° 89° (E) 2,374 1.9 -17.1°
